Flag Weather past 2 weeks in Fehmarn (Puttgarden), Schleswig-Holstein, Germany

Now
48 °F

Light rain. Overcast.


Feels Like: 42 °F
Forecast: 47 / 51 °F
Wind: 13 mph from West

Location: Westermarkelsdorf

Current Time: Nov 24, 2014 at 9:42:39 AM

Latest Report: Nov 24, 2014 at 9:00 AM


Visibility: 11 mi

Pressure: 30.01 "Hg

Humidity: 90%

Dew point: 45 °F

Location of Fehmarn (Puttgarden)Location

Historic Weather in Fehmarn (Puttgarden) — Graph

°F

Fehmarn (Puttgarden) temperature yesterday

Maximum temperature yesterday: 47 °F (at 11:00 PM)
Minimum temperature yesterday: 42 °F (at 6:00 AM)
Average temperature yesterday: 44 °F

Past Weeks' High & Low Weather Summary

 TemperatureHumidityPressure
High52 °F (Nov 9, 1:00 PM)100% (Nov 11, 8:00 AM)30.39 "Hg (Nov 11, 8:00 AM)
Low39 °F (Nov 22, 7:00 AM)76% (Nov 9, 1:00 PM)29.63 "Hg (Nov 16, 5:00 PM)
Average47 °F92%29.98 "Hg
* Reported Nov 9 8:00 AM — Nov 24 8:00 AM, Fehmarn (Puttgarden), Weather by CustomWeather, © 2014

Note: Actual official high and low records may vary slightly from our data, if they occured in-between our weather recording intervals... More about our weather records

Advertising

Fehmarn (Puttgarden) weather history for previous 24 hours

 ConditionsComfort  
Time TempWeatherWind HumidityBarometerVisibility
8:00 AM
Nov 24
48 °FLight rain. Overcast.12 mph92%29.97 "Hg14 mi
7:00 AM49 °FLight rain. Low clouds.12 mph97%29.94 "Hg6 mi
6:00 AM47 °FLight freezing rain. Low clouds.6 mph98%29.91 "Hg1 mi
5:00 AM47 °FOvercast.7 mph85%29.89 "Hg7 mi
3:00 AM46 °FOvercast.8 mph84%29.92 "Hg6 mi
2:00 AM47 °FOvercast.9 mph84%29.92 "Hg6 mi
1:00 AM48 °FOvercast.8 mph84%29.94 "Hg6 mi
12:00 AM48 °FOvercast.9 mph85%29.96 "Hg6 mi
11:00 PM
Nov 23
47 °FOvercast.9 mph86%29.98 "Hg5 mi
9:00 PM46 °FPassing clouds.8 mph86%30.01 "Hg9 mi
8:00 PM46 °FPassing clouds.9 mph86%30.02 "Hg6 mi
7:00 PM46 °FPassing clouds.8 mph87%30.03 "Hg6 mi
6:00 PM46 °FPassing clouds.8 mph88%30.06 "Hg6 mi
5:00 PM45 °FOvercast.7 mph90%30.07 "Hg6 mi
3:00 PM45 °FOvercast.6 mph89%30.12 "Hg6 mi
2:00 PM45 °FOvercast.6 mph90%30.12 "Hg5 mi
1:00 PM45 °FLow clouds.8 mph89%30.12 "Hg5 mi
12:00 PM44 °FOvercast.6 mph90%30.16 "Hg5 mi
11:00 AM43 °FOvercast.6 mph89%30.17 "Hg5 mi
10:00 AM43 °FOvercast.6 mph90%30.18 "Hg5 mi
9:00 AM43 °FOvercast.6 mph90%30.18 "Hg5 mi
Weather by CustomWeather, © 2014

See weather overviewHow to use our weather pages